Regional Weather Roundup
Issued by NWS

Home | Current Version | Previous Version | Text Only | Print | Product List | Glossary Off
Versions: 1 2 3 4 5 6 7 8 9 10 11 12 13 14 15 16 17 18 19 20 21 22 23 24 25 26 27 28 29 30 31 32 33 34 35 36 37 38 39 40 41 42 43 44 45 46 47 48 49 50

000
ASUS44 KMEG 180010
RWRTN
TENNESSEE HOURLY STATE WEATHER ROUNDUP
NATIONAL WEATHER SERVICE MEMPHIS TN
700 PM CDT FRI APR 17 2015

TNZ002-004-019-021-049-052-054-088>092-180100-
WEST TENNESSEE

CITY           SKY/WX    TMP DP  RH WIND       PRES   REMARKS
MEMPHIS INTL   MOCLDY    72  63  73 NE8       29.98F
NWS MEMPHIS      N/A     70 N/A N/A MISG        N/A
JACKSON        MOCLDY    66  61  84 CALM      30.02R
DYERSBURG      CLOUDY    70  54  56 CALM      30.01S
UNION CITY     PTCLDY    72  32  23 CALM      30.00R
PARIS          CLEAR     70  61  73 NE3       30.01R
LEXINGTON      PTCLDY    70  61  73 W3        30.01R
SAVANNAH       MOCLDY    66  32  28 CALM      30.02R
$$

TNZ008-025-027-028-033-062-065-066-180100-
NORTH MIDDLE TENNESSEE

CITY           SKY/WX    TMP DP  RH WIND       PRES   REMARKS
NASHVILLE      MOCLDY    72  60  66 CALM      30.01S
CLARKSVILLE    CLEAR     71  60  68 E6        30.00S
SMYRNA         CLOUDY    70  62  75 N6        30.01F
COOKEVILLE     CLEAR     70  63  78 CALM      30.00S
CROSSVILLE     CLOUDY    66  57  72 CALM      30.04R
$$

TNZ061-075-076-078-094-096-097-180100-
SOUTH MIDDLE TENNESSEE

CITY           SKY/WX    TMP DP  RH WIND       PRES   REMARKS
FAYETTEVILLE   CLEAR     63  61  94 SE3       30.00F
TULLAHOMA      MOCLDY    64  59  82 CALM      30.02S
WINCHESTER     CLEAR     63  59  88 S5        30.02S
MCMINNVILLE    PTCLDY    70  63  78 N3        30.01S
COLUMBIA       CLEAR     66  32  28 CALM      30.00R
SHELBYVILLE    CLEAR     66  63  88 CALM      30.01S
$$

TNZ017-018-042-046-047-180100-
NORTHEAST TENNESSEE

CITY           SKY/WX    TMP DP  RH WIND       PRES   REMARKS
TRI CITIES     CLOUDY    68  58  70 SW5       30.02R
ELIZABETHTON   CLEAR     63  57  82 NW3       30.02S
$$

TNZ012-013-036-069-073-074-180100-
CENTRAL EAST TENNESSEE

CITY           SKY/WX    TMP DP  RH WIND       PRES   REMARKS
KNOXVILLE      CLOUDY    66  60  81 CALM      30.00F
OAK RIDGE      CLOUDY    70  60  70 CALM      30.02F
GATLINBURG     CLEAR     66  57  72 CALM      30.01S
MORRISTOWN     CLEAR     66  61  82 W3        30.03S
$$

TNZ083-085-099-180100-
SOUTHEAST TENNESSEE

CITY           SKY/WX    TMP DP  RH WIND       PRES   REMARKS
CHATTANOOGA    CLOUDY    63  60  90 CALM      30.02S
$$

SKY/WX REPORTED AS FAIR MEANS FEW OR NO CLOUDS BELOW
12 THOUSAND FEET.



USA.gov is the U.S. government's official web portal to all federal, state and local government web resources and services.